Wetterdaten: Samstag, 28.07.2012
Datum Zeit Temperatur Luftfeuchte Regen Wind Richtung Richtung Taupunkt Windchill Windben
28.07.2012 00:00 21,9 C 56 % 0,0 l/m 4,3 km/h (1 Bft) SO 135 12,7 C 22,7 C 2,9 km/h (1 Bft)
28.07.2012 00:05 21,2 C 57 % 0,0 l/m 2,4 km/h (1 Bft) N-NO 22 12,3 C 22,5 C 2,3 km/h (1 Bft)
28.07.2012 00:10 21,4 C 58 % 0,0 l/m 2,3 km/h (1 Bft) N-NO 22 12,8 C 22,4 C 9,5 km/h (2 Bft)
28.07.2012 00:15 21,2 C 59 % 0,0 l/m 3,5 km/h (1 Bft) S 180 12,9 C 22,4 C 3,4 km/h (1 Bft)
28.07.2012 00:20 21,2 C 59 % 0,0 l/m 2,9 km/h (1 Bft) SW 225 12,9 C 22,2 C 17,9 km/h (3 Bft)
28.07.2012 00:25 20,8 C 63 % 0,0 l/m 3,1 km/h (1 Bft) W 270 13,5 C 22,0 C 4,0 km/h (1 Bft)
28.07.2012 00:30 20,7 C 64 % 0,0 l/m 4,3 km/h (1 Bft) S 180 13,6 C 21,6 C 3,9 km/h (1 Bft)
28.07.2012 00:35 20,4 C 64 % 0,0 l/m 4,5 km/h (1 Bft) O-SO 112 13,4 C 21,3 C 15,4 km/h (3 Bft)
28.07.2012 00:40 20,5 C 64 % 0,0 l/m 4,3 km/h (1 Bft) NO 45 13,5 C 21,2 C 6,8 km/h (2 Bft)
28.07.2012 00:45 20,3 C 64 % 0,0 l/m 4,3 km/h (1 Bft) O 90 13,3 C 21,1 C 1,9 km/h (1 Bft)
28.07.2012 00:50 20,3 C 64 % 0,0 l/m 4,5 km/h (1 Bft) S-SO 157 13,3 C 20,8 C 11,9 km/h (2 Bft)
28.07.2012 00:55 20,1 C 64 % 0,0 l/m 6,0 km/h (2 Bft) O 90 13,1 C 20,7 C 10,5 km/h (2 Bft)
28.07.2012 01:00 20,2 C 63 % 0,0 l/m 6,4 km/h (2 Bft) NO 45 12,9 C 20,6 C 5,0 km/h (1 Bft)
28.07.2012 01:05 20,0 C 64 % 0,0 l/m 4,2 km/h (1 Bft) O-SO 112 13,0 C 20,5 C 4,3 km/h (1 Bft)
28.07.2012 01:10 20,2 C 62 % 0,0 l/m 3,9 km/h (1 Bft) SO 135 12,7 C 20,5 C 6,9 km/h (2 Bft)
28.07.2012 01:15 20,2 C 61 % 0,0 l/m 5,1 km/h (1 Bft) W 270 12,4 C 20,7 C 4,7 km/h (1 Bft)
28.07.2012 01:20 20,0 C 62 % 0,0 l/m 4,3 km/h (1 Bft) S 180 12,5 C 20,9 C 9,2 km/h (2 Bft)
28.07.2012 01:25 20,2 C 61 % 0,0 l/m 2,4 km/h (1 Bft) S-SO 157 12,4 C 21,1 C 0,0 km/h (0 Bft)
28.07.2012 01:30 20,2 C 61 % 0,0 l/m 2,7 km/h (1 Bft) SO 135 12,4 C 21,2 C 9,8 km/h (2 Bft)
28.07.2012 01:35 20,8 C 59 % 0,0 l/m 6,4 km/h (2 Bft) N-NO 22 12,5 C 21,4 C 10,5 km/h (2 Bft)
28.07.2012 01:40 20,7 C 60 % 0,0 l/m 7,4 km/h (2 Bft) O-SO 112 12,7 C 21,0 C 6,8 km/h (2 Bft)
28.07.2012 01:45 20,2 C 62 % 0,0 l/m 5,0 km/h (1 Bft) N 360 12,7 C 20,9 C 4,5 km/h (1 Bft)
28.07.2012 01:50 20,2 C 62 % 0,0 l/m 3,2 km/h (1 Bft) N-NW 337 12,7 C 20,6 C 1,9 km/h (1 Bft)
28.07.2012 01:55 20,1 C 62 % 0,0 l/m 1,4 km/h (1 Bft) N-NO 22 12,6 C 20,4 C 0,0 km/h (0 Bft)
28.07.2012 02:00 19,6 C 66 % 0,0 l/m 0,8 km/h (0 Bft) S-SW 202 13,1 C 20,0 C 1,6 km/h (1 Bft)
28.07.2012 02:05 19,1 C 69 % 0,0 l/m 1,3 km/h (1 Bft) O-SO 112 13,3 C 19,2 C 1,9 km/h (1 Bft)
28.07.2012 02:10 18,5 C 74 % 0,0 l/m 1,9 km/h (1 Bft) S-SW 202 13,8 C 18,6 C 3,7 km/h (1 Bft)
28.07.2012 02:15 18,3 C 75 % 0,0 l/m 1,6 km/h (1 Bft) N-NO 22 13,8 C 18,1 C 0,0 km/h (0 Bft)
28.07.2012 02:20 18,0 C 77 % 0,0 l/m 1,3 km/h (1 Bft) W 270 13,9 C 17,9 C 0,0 km/h (0 Bft)
28.07.2012 02:25 17,8 C 77 % 0,0 l/m 1,4 km/h (1 Bft) S-SO 157 13,7 C 17,6 C 1,6 km/h (1 Bft)
28.07.2012 02:30 17,7 C 78 % 0,0 l/m 1,3 km/h (1 Bft) O 90 13,8 C 17,5 C 0,0 km/h (0 Bft)
28.07.2012 02:35 17,7 C 79 % 0,0 l/m 0,5 km/h (0 Bft) O-SO 112 14,0 C 17,4 C 0,0 km/h (0 Bft)
28.07.2012 02:40 17,7 C 78 % 0,0 l/m 1,0 km/h (0 Bft) W-SW 247 13,8 C 17,4 C 0,0 km/h (0 Bft)
28.07.2012 02:45 17,6 C 78 % 0,0 l/m 1,3 km/h (1 Bft) NO 45 13,7 C 17,5 C 0,0 km/h (0 Bft)
28.07.2012 02:50 17,4 C 77 % 0,0 l/m 1,3 km/h (1 Bft) SO 135 13,3 C 17,3 C 2,7 km/h (1 Bft)
28.07.2012 02:55 17,2 C 78 % 0,0 l/m 0,8 km/h (0 Bft) S 180 13,3 C 17,2 C 2,7 km/h (1 Bft)
28.07.2012 03:00 17,0 C 78 % 0,0 l/m 1,1 km/h (1 Bft) N 360 13,1 C 17,2 C 0,0 km/h (0 Bft)
28.07.2012 03:05 16,9 C 79 % 0,0 l/m 1,8 km/h (1 Bft) W-NW 292 13,2 C 17,3 C 3,4 km/h (1 Bft)
28.07.2012 03:10 17,0 C 79 % 0,0 l/m 1,9 km/h (1 Bft) SO 135 13,3 C 17,4 C 0,0 km/h (0 Bft)
28.07.2012 03:15 17,0 C 78 % 0,0 l/m 2,4 km/h (1 Bft) S-SW 202 13,1 C 17,5 C 3,2 km/h (1 Bft)
28.07.2012 03:20 16,7 C 79 % 0,0 l/m 2,1 km/h (1 Bft) O-SO 112 13,0 C 17,5 C 2,7 km/h (1 Bft)
28.07.2012 03:25 16,8 C 79 % 0,0 l/m 2,1 km/h (1 Bft) O 90 13,1 C 17,4 C 2,6 km/h (1 Bft)
28.07.2012 03:30 16,7 C 79 % 0,0 l/m 1,9 km/h (1 Bft) SO 135 13,0 C 17,3 C 3,4 km/h (1 Bft)
28.07.2012 03:35 16,4 C 80 % 0,0 l/m 1,1 km/h (1 Bft) O 90 12,9 C 17,1 C 0,0 km/h (0 Bft)
28.07.2012 03:40 16,2 C 80 % 0,0 l/m 1,0 km/h (0 Bft) SO 135 12,7 C 16,9 C 3,1 km/h (1 Bft)
28.07.2012 03:45 16,1 C 80 % 0,0 l/m 0,6 km/h (0 Bft) W-NW 292 12,6 C 16,6 C 2,9 km/h (1 Bft)
28.07.2012 03:50 16,3 C 80 % 0,0 l/m 1,1 km/h (1 Bft) S 180 12,8 C 16,7 C 5,6 km/h (1 Bft)
28.07.2012 03:55 16,2 C 80 % 0,0 l/m 1,3 km/h (1 Bft) O-NO 67 12,7 C 16,7 C 1,8 km/h (1 Bft)
28.07.2012 04:00 16,6 C 81 % 0,0 l/m 1,4 km/h (1 Bft) SO 135 13,3 C 16,7 C 4,7 km/h (1 Bft)
28.07.2012 04:05 16,6 C 80 % 0,0 l/m 2,4 km/h (1 Bft) N-NO 22 13,1 C 16,8 C 0,0 km/h (0 Bft)
28.07.2012 04:10 16,5 C 80 % 0,0 l/m 1,8 km/h (1 Bft) N-NO 22 13,0 C 16,8 C 0,0 km/h (0 Bft)
28.07.2012 04:15 16,3 C 79 % 0,0 l/m 0,2 km/h (0 Bft) S-SO 157 12,6 C 16,5 C 0,0 km/h (0 Bft)
28.07.2012 04:20 16,1 C 80 % 0,0 l/m 0,3 km/h (0 Bft) SO 135 12,6 C 16,3 C 0,0 km/h (0 Bft)
28.07.2012 04:25 15,8 C 80 % 0,0 l/m 0,3 km/h (0 Bft) O-SO 112 12,4 C 16,0 C 0,0 km/h (0 Bft)
28.07.2012 04:30 15,7 C 81 % 0,0 l/m 0,0 km/h (0 Bft) S-SO 157 12,4 C 15,8 C 0,0 km/h (0 Bft)
28.07.2012 04:35 15,6 C 81 % 0,0 l/m 0,0 km/h (0 Bft) SW 225 12,3 C 15,6 C 0,0 km/h (0 Bft)
28.07.2012 04:40 15,6 C 82 % 0,0 l/m 0,0 km/h (0 Bft) N 360 12,5 C 15,6 C 0,0 km/h (0 Bft)
28.07.2012 04:45 15,4 C 82 % 0,0 l/m 0,0 km/h (0 Bft) SO 135 12,3 C 15,2 C 0,0 km/h (0 Bft)
28.07.2012 04:50 15,2 C 82 % 0,0 l/m 0,0 km/h (0 Bft) W-NW 292 12,1 C 15,0 C 0,0 km/h (0 Bft)
28.07.2012 04:55 14,8 C 82 % 0,0 l/m 0,0 km/h (0 Bft) S 180 11,8 C 14,8 C 0,0 km/h (0 Bft)
28.07.2012 05:00 14,8 C 83 % 0,0 l/m 0,0 km/h (0 Bft) W-NW 292 11,9 C 14,6 C 0,0 km/h (0 Bft)
28.07.2012 05:05 15,2 C 84 % 0,0 l/m 0,3 km/h (0 Bft) N-NW 337 12,5 C 14,6 C 0,0 km/h (0 Bft)
28.07.2012 05:10 15,1 C 83 % 0,0 l/m 0,3 km/h (0 Bft) S 180 12,2 C 14,7 C 0,0 km/h (0 Bft)
28.07.2012 05:15 14,8 C 83 % 0,0 l/m 0,0 km/h (0 Bft) O-NO 67 11,9 C 14,7 C 0,0 km/h (0 Bft)
28.07.2012 05:20 14,9 C 83 % 0,0 l/m 0,0 km/h (0 Bft) W 270 12,0 C 14,7 C 0,0 km/h (0 Bft)
28.07.2012 05:25 14,8 C 83 % 0,0 l/m 0,3 km/h (0 Bft) N-NO 22 11,9 C 14,8 C 1,8 km/h (1 Bft)
28.07.2012 05:30 15,0 C 83 % 0,0 l/m 0,6 km/h (0 Bft) NO 45 12,1 C 15,0 C 0,0 km/h (0 Bft)
28.07.2012 05:35 15,0 C 83 % 0,0 l/m 0,5 km/h (0 Bft) W 270 12,1 C 15,0 C 0,0 km/h (0 Bft)
28.07.2012 05:40 14,8 C 83 % 0,0 l/m 0,0 km/h (0 Bft) W-SW 247 11,9 C 14,9 C 0,0 km/h (0 Bft)
28.07.2012 05:45 14,4 C 83 % 0,0 l/m 0,0 km/h (0 Bft) S 180 11,5 C 14,5 C 0,0 km/h (0 Bft)
28.07.2012 05:50 14,3 C 83 % 0,0 l/m 0,0 km/h (0 Bft) W-SW 247 11,5 C 14,3 C 0,0 km/h (0 Bft)
28.07.2012 05:55 14,1 C 83 % 0,0 l/m 0,0 km/h (0 Bft) N-NO 22 11,3 C 14,2 C 0,0 km/h (0 Bft)
28.07.2012 06:00 14,1 C 83 % 0,0 l/m 0,0 km/h (0 Bft) N-NW 337 11,3 C 14,0 C 0,0 km/h (0 Bft)
28.07.2012 06:05 14,1 C 83 % 0,0 l/m 0,0 km/h (0 Bft) N-NO 22 11,3 C 13,9 C 0,0 km/h (0 Bft)
28.07.2012 06:10 14,3 C 83 % 0,0 l/m 0,0 km/h (0 Bft) S-SW 202 11,5 C 14,0 C 0,0 km/h (0 Bft)
28.07.2012 06:15 14,5 C 83 % 0,0 l/m 0,0 km/h (0 Bft) S-SW 202 11,6 C 14,3 C 0,0 km/h (0 Bft)
28.07.2012 06:20 14,7 C 83 % 0,0 l/m 0,3 km/h (0 Bft) SO 135 11,8 C 14,5 C 0,0 km/h (0 Bft)
28.07.2012 06:25 15,1 C 83 % 0,0 l/m 0,5 km/h (0 Bft) O 90 12,2 C 14,9 C 0,0 km/h (0 Bft)
28.07.2012 06:30 15,2 C 83 % 0,0 l/m 1,1 km/h (1 Bft) O-SO 112 12,3 C 15,1 C 5,8 km/h (2 Bft)
28.07.2012 06:35 15,5 C 83 % 0,0 l/m 2,4 km/h (1 Bft) S-SW 202 12,6 C 15,6 C 2,4 km/h (1 Bft)
28.07.2012 06:40 15,6 C 82 % 0,0 l/m 1,9 km/h (1 Bft) O-SO 112 12,5 C 16,1 C 0,0 km/h (0 Bft)
28.07.2012 06:45 16,9 C 80 % 0,0 l/m 0,5 km/h (0 Bft) O-SO 112 13,4 C 17,3 C 1,8 km/h (1 Bft)
28.07.2012 06:50 17,5 C 78 % 0,0 l/m 0,6 km/h (0 Bft) N 360 13,6 C 17,9 C 3,1 km/h (1 Bft)
28.07.2012 06:55 18,2 C 76 % 0,0 l/m 0,3 km/h (0 Bft) N-NO 22 13,9 C 18,7 C 0,0 km/h (0 Bft)
28.07.2012 07:00 18,7 C 75 % 0,0 l/m 0,2 km/h (0 Bft) NO 45 14,2 C 19,3 C 0,0 km/h (0 Bft)
28.07.2012 07:05 19,5 C 73 % 0,0 l/m 1,6 km/h (1 Bft) N-NO 22 14,5 C 20,0 C 2,4 km/h (1 Bft)
28.07.2012 07:10 19,9 C 69 % 0,0 l/m 2,1 km/h (1 Bft) O 90 14,0 C 20,5 C 2,1 km/h (1 Bft)
28.07.2012 07:15 18,3 C 71 % 0,0 l/m 1,8 km/h (1 Bft) W 270 12,9 C 20,3 C 0,0 km/h (0 Bft)
28.07.2012 07:20 17,9 C 72 % 0,0 l/m 1,9 km/h (1 Bft) SO 135 12,8 C 19,6 C 6,8 km/h (2 Bft)
28.07.2012 07:25 17,9 C 72 % 0,0 l/m 1,8 km/h (1 Bft) O-SO 112 12,8 C 18,9 C 0,0 km/h (0 Bft)
28.07.2012 07:30 18,6 C 72 % 0,0 l/m 1,3 km/h (1 Bft) W-SW 247 13,4 C 18,9 C 0,0 km/h (0 Bft)
28.07.2012 07:35 20,3 C 68 % 0,0 l/m 0,2 km/h (0 Bft) NO 45 14,2 C 20,6 C 0,0 km/h (0 Bft)
28.07.2012 07:40 20,8 C 64 % 0,0 l/m 0,3 km/h (0 Bft) N-NO 22 13,7 C 21,4 C 0,0 km/h (0 Bft)
28.07.2012 07:45 21,0 C 62 % 0,0 l/m 1,1 km/h (1 Bft) N-NW 337 13,4 C 21,8 C 2,7 km/h (1 Bft)
28.07.2012 07:50 21,2 C 62 % 0,0 l/m 1,1 km/h (1 Bft) N-NO 22 13,6 C 22,1 C 2,6 km/h (1 Bft)
28.07.2012 07:55 21,5 C 62 % 0,0 l/m 1,0 km/h (0 Bft) N-NW 337 13,9 C 22,6 C 3,4 km/h (1 Bft)
28.07.2012 08:00 20,5 C 63 % 0,0 l/m 1,0 km/h (0 Bft) N-NW 337 13,2 C 22,2 C 0,0 km/h (0 Bft)
28.07.2012 08:05 20,5 C 63 % 0,0 l/m 1,3 km/h (1 Bft) W-NW 292 13,2 C 21,6 C 2,1 km/h (1 Bft)
28.07.2012 08:10 20,5 C 65 % 0,0 l/m 1,6 km/h (1 Bft) N-NO 22 13,7 C 21,4 C 1,9 km/h (1 Bft)
28.07.2012 08:15 23,5 C 59 % 0,0 l/m 1,9 km/h (1 Bft) SO 135 15,8 C 23,2 C 3,2 km/h (1 Bft)
28.07.2012 08:20 24,1 C 56 % 0,0 l/m 1,3 km/h (1 Bft) O-SO 112 15,6 C 24,8 C 1,6 km/h (1 Bft)
28.07.2012 08:25 24,0 C 57 % 0,0 l/m 1,3 km/h (1 Bft) O-SO 112 15,3 C 25,9 C 0,0 km/h (0 Bft)
28.07.2012 08:30 23,4 C 57 % 0,0 l/m 1,3 km/h (1 Bft) O-SO 112 14,4 C 25,8 C 0,0 km/h (0 Bft)
28.07.2012 08:35 23,0 C 56 % 0,0 l/m 1,8 km/h (1 Bft) S 180 13,7 C 25,1 C 2,1 km/h (1 Bft)
28.07.2012 08:40 23,5 C 58 % 0,0 l/m 1,4 km/h (1 Bft) O 90 14,8 C 25,0 C 6,1 km/h (2 Bft)
28.07.2012 08:45 23,7 C 50 % 0,0 l/m 2,6 km/h (1 Bft) O 90 12,8 C 25,7 C 1,8 km/h (1 Bft)
28.07.2012 08:50 23,9 C 54 % 0,0 l/m 3,5 km/h (1 Bft) O-SO 112 14,1 C 25,8 C 5,3 km/h (1 Bft)
28.07.2012 08:55 24,3 C 50 % 0,0 l/m 2,7 km/h (1 Bft) O-SO 112 14,2 C 26,7 C 5,0 km/h (1 Bft)
28.07.2012 09:00 24,3 C 49 % 0,0 l/m 3,9 km/h (1 Bft) SO 135 13,3 C 26,5 C 5,6 km/h (1 Bft)
28.07.2012 09:05 24,4 C 49 % 0,0 l/m 2,6 km/h (1 Bft) N 360 13,6 C 26,2 C 0,0 km/h (0 Bft)
28.07.2012 09:10 24,9 C 49 % 0,0 l/m 1,4 km/h (1 Bft) O-SO 112 15,3 C 27,3 C 5,1 km/h (1 Bft)
28.07.2012 09:15 25,5 C 46 % 0,0 l/m 2,9 km/h (1 Bft) S-SO 157 15,1 C 28,7 C 2,9 km/h (1 Bft)
28.07.2012 09:20 25,6 C 43 % 0,0 l/m 3,9 km/h (1 Bft) O-SO 112 13,8 C 29,1 C 5,1 km/h (1 Bft)
28.07.2012 09:25 26,0 C 43 % 0,0 l/m 4,2 km/h (1 Bft) SO 135 14,5 C 29,4 C 10,6 km/h (2 Bft)
28.07.2012 09:30 26,3 C 44 % 0,0 l/m 4,7 km/h (1 Bft) SO 135 15,0 C 29,2 C 2,7 km/h (1 Bft)
28.07.2012 09:35 26,1 C 44 % 0,0 l/m 5,0 km/h (1 Bft) S 180 13,3 C 28,9 C 5,8 km/h (2 Bft)
28.07.2012 09:40 25,7 C 47 % 0,0 l/m 4,8 km/h (1 Bft) S-SO 157 13,6 C 27,7 C 5,8 km/h (2 Bft)
28.07.2012 09:45 25,5 C 48 % 0,0 l/m 6,0 km/h (2 Bft) SO 135 13,7 C 26,8 C 7,4 km/h (2 Bft)
28.07.2012 09:50 25,4 C 50 % 0,0 l/m 5,8 km/h (2 Bft) S-SO 157 14,2 C 26,3 C 4,2 km/h (1 Bft)
28.07.2012 09:55 25,7 C 48 % 0,0 l/m 5,5 km/h (1 Bft) SW 225 14,5 C 26,2 C 5,3 km/h (1 Bft)
28.07.2012 10:00 26,1 C 46 % 0,0 l/m 5,3 km/h (1 Bft) SO 135 14,6 C 26,7 C 5,3 km/h (1 Bft)
28.07.2012 10:05 26,4 C 46 % 0,0 l/m 5,8 km/h (2 Bft) S-SO 157 15,1 C 27,5 C 5,0 km/h (1 Bft)
28.07.2012 10:10 26,7 C 44 % 0,0 l/m 6,4 km/h (2 Bft) S 180 14,3 C 28,0 C 13,7 km/h (3 Bft)
28.07.2012 10:15 26,7 C 44 % 0,0 l/m 7,4 km/h (2 Bft) S 180 14,8 C 27,7 C 8,5 km/h (2 Bft)
28.07.2012 10:20 27,0 C 44 % 0,0 l/m 7,4 km/h (2 Bft) O-SO 112 15,0 C 28,0 C 6,8 km/h (2 Bft)
28.07.2012 10:25 27,2 C 44 % 0,0 l/m 6,3 km/h (2 Bft) SO 135 14,4 C 28,6 C 6,6 km/h (2 Bft)
28.07.2012 10:30 27,2 C 44 % 0,0 l/m 6,8 km/h (2 Bft) O-NO 67 14,1 C 28,3 C 9,2 km/h (2 Bft)
28.07.2012 10:35 26,9 C 45 % 0,0 l/m 9,2 km/h (2 Bft) O-SO 112 14,0 C 27,4 C 11,1 km/h (2 Bft)
28.07.2012 10:40 26,9 C 48 % 0,0 l/m 9,2 km/h (2 Bft) S 180 14,9 C 26,8 C 18,7 km/h (3 Bft)
28.07.2012 10:45 26,7 C 47 % 0,0 l/m 7,2 km/h (2 Bft) NO 45 14,4 C 27,1 C 6,6 km/h (2 Bft)
28.07.2012 10:50 26,5 C 49 % 0,0 l/m 6,6 km/h (2 Bft) S 180 14,9 C 27,2 C 7,7 km/h (2 Bft)
28.07.2012 10:55 26,4 C 50 % 0,0 l/m 5,6 km/h (1 Bft) S 180 15,1 C 26,7 C 4,2 km/h (1 Bft)
28.07.2012 11:00 26,9 C 48 % 0,0 l/m 5,5 km/h (1 Bft) S 180 14,9 C 27,2 C 5,8 km/h (2 Bft)
28.07.2012 11:05 27,2 C 47 % 0,0 l/m 6,4 km/h (2 Bft) S 180 14,9 C 27,8 C 7,6 km/h (2 Bft)
28.07.2012 11:10 26,2 C 49 % 0,0 l/m 7,1 km/h (2 Bft) S-SO 157 14,6 C 27,6 C 8,5 km/h (2 Bft)
28.07.2012 11:15 25,4 C 52 % 0,0 l/m 7,6 km/h (2 Bft) O-SO 112 14,8 C 26,3 C 15,1 km/h (3 Bft)
28.07.2012 11:20 24,8 C 53 % 0,0 l/m 6,9 km/h (2 Bft) O-SO 112 14,6 C 25,9 C 7,6 km/h (2 Bft)
28.07.2012 11:25 24,5 C 54 % 0,0 l/m 6,1 km/h (2 Bft) S-SW 202 14,6 C 25,4 C 6,6 km/h (2 Bft)
28.07.2012 11:30 24,4 C 55 % 0,0 l/m 5,0 km/h (1 Bft) S-SO 157 14,8 C 25,2 C 4,8 km/h (1 Bft)
28.07.2012 11:35 24,4 C 56 % 0,0 l/m 4,7 km/h (1 Bft) S-SO 157 15,0 C 25,1 C 6,0 km/h (2 Bft)
28.07.2012 11:40 24,4 C 55 % 0,0 l/m 5,1 km/h (1 Bft) S-SO 157 14,8 C 25,3 C 10,1 km/h (2 Bft)
28.07.2012 11:45 24,3 C 57 % 0,0 l/m 5,6 km/h (1 Bft) SO 135 15,2 C 25,1 C 8,2 km/h (2 Bft)
28.07.2012 11:50 24,0 C 56 % 0,0 l/m 5,5 km/h (1 Bft) SO 135 14,7 C 25,0 C 7,2 km/h (2 Bft)
28.07.2012 11:55 23,9 C 54 % 0,0 l/m 5,6 km/h (1 Bft) O-SO 112 14,0 C 24,9 C 5,1 km/h (1 Bft)
28.07.2012 12:00 24,6 C 55 % 0,0 l/m 6,3 km/h (2 Bft) O-SO 112 14,9 C 25,0 C 7,4 km/h (2 Bft)
28.07.2012 12:05 25,0 C 54 % 0,0 l/m 6,3 km/h (2 Bft) S 180 15,0 C 25,5 C 10,0 km/h (2 Bft)
28.07.2012 12:10 25,6 C 53 % 0,0 l/m 6,3 km/h (2 Bft) S-SO 157 15,3 C 25,9 C 6,0 km/h (2 Bft)
28.07.2012 12:15 24,9 C 53 % 0,0 l/m 7,2 km/h (2 Bft) S-SO 157 14,6 C 25,9 C 9,7 km/h (2 Bft)
28.07.2012 12:20 25,2 C 54 % 0,0 l/m 7,2 km/h (2 Bft) S-SO 157 15,2 C 25,8 C 6,4 km/h (2 Bft)
28.07.2012 12:25 25,2 C 53 % 0,0 l/m 6,8 km/h (2 Bft) SO 135 14,9 C 26,1 C 5,8 km/h (2 Bft)
28.07.2012 12:30 25,1 C 56 % 0,0 l/m 6,6 km/h (2 Bft) S-SO 157 15,7 C 26,3 C 10,0 km/h (2 Bft)
28.07.2012 12:35 25,1 C 55 % 0,0 l/m 6,3 km/h (2 Bft) SO 135 15,4 C 26,1 C 6,1 km/h (2 Bft)
28.07.2012 12:40 25,0 C 56 % 0,0 l/m 5,8 km/h (2 Bft) O-SO 112 15,6 C 26,1 C 16,7 km/h (3 Bft)
28.07.2012 12:45 25,2 C 54 % 0,0 l/m 6,4 km/h (2 Bft) SO 135 15,2 C 26,1 C 7,7 km/h (2 Bft)
28.07.2012 12:50 25,2 C 54 % 0,0 l/m 6,0 km/h (2 Bft) SO 135 15,2 C 26,1 C 6,1 km/h (2 Bft)
28.07.2012 12:55 24,8 C 55 % 0,0 l/m 3,1 km/h (1 Bft) O-SO 112 15,1 C 26,1 C 0,0 km/h (0 Bft)
28.07.2012 13:00 24,6 C 56 % 0,0 l/m 2,7 km/h (1 Bft) S-SO 157 15,2 C 25,9 C 2,4 km/h (1 Bft)
28.07.2012 13:05 23,8 C 57 % 0,0 l/m 2,3 km/h (1 Bft) SO 135 14,8 C 25,4 C 2,6 km/h (1 Bft)
28.07.2012 13:10 23,2 C 59 % 0,0 l/m 2,3 km/h (1 Bft) S-SO 157 14,7 C 24,8 C 1,9 km/h (1 Bft)
28.07.2012 13:15 22,8 C 59 % 0,0 l/m 1,8 km/h (1 Bft) SO 135 14,4 C 24,1 C 2,1 km/h (1 Bft)
28.07.2012 13:20 22,7 C 62 % 0,0 l/m 1,8 km/h (1 Bft) O-SO 112 15,0 C 23,6 C 2,6 km/h (1 Bft)
28.07.2012 13:25 22,7 C 63 % 0,0 l/m 2,4 km/h (1 Bft) SO 135 15,3 C 23,4 C 3,1 km/h (1 Bft)
28.07.2012 13:30 22,7 C 63 % 0,0 l/m 2,1 km/h (1 Bft) O-SO 112 15,3 C 23,4 C 3,9 km/h (1 Bft)
28.07.2012 13:35 22,7 C 63 % 0,0 l/m 1,0 km/h (0 Bft) O 90 15,3 C 23,5 C 0,0 km/h (0 Bft)
28.07.2012 13:40 22,6 C 63 % 0,0 l/m 0,5 km/h (0 Bft) S-SW 202 15,2 C 23,5 C 0,0 km/h (0 Bft)
28.07.2012 13:45 21,8 C 68 % 0,0 l/m 0,3 km/h (0 Bft) NO 45 15,6 C 23,3 C 1,6 km/h (1 Bft)
28.07.2012 13:50 21,7 C 68 % 0,0 l/m 0,8 km/h (0 Bft) S 180 15,5 C 23,0 C 2,1 km/h (1 Bft)
28.07.2012 13:55 20,8 C 72 % 0,0 l/m 1,1 km/h (1 Bft) O-SO 112 15,6 C 22,0 C 2,1 km/h (1 Bft)
28.07.2012 14:00 20,6 C 72 % 0,0 l/m 0,8 km/h (0 Bft) O 90 15,4 C 21,4 C 0,0 km/h (0 Bft)
28.07.2012 14:05 20,1 C 77 % 0,0 l/m 0,3 km/h (0 Bft) NO 45 15,9 C 20,7 C 0,0 km/h (0 Bft)
28.07.2012 14:10 19,8 C 77 % 0,0 l/m 0,2 km/h (0 Bft) O 90 15,6 C 20,4 C 0,0 km/h (0 Bft)
28.07.2012 14:15 19,4 C 79 % 0,0 l/m 0,0 km/h (0 Bft) SO 135 15,7 C 19,9 C 2,4 km/h (1 Bft)
28.07.2012 14:20 19,8 C 79 % 0,0 l/m 1,3 km/h (1 Bft) O-SO 112 16,0 C 19,7 C 4,2 km/h (1 Bft)
28.07.2012 14:25 19,5 C 81 % 0,0 l/m 2,1 km/h (1 Bft) N 360 16,1 C 19,3 C 2,9 km/h (1 Bft)
28.07.2012 14:30 19,1 C 81 % 0,0 l/m 1,3 km/h (1 Bft) S-SW 202 15,8 C 19,1 C 0,0 km/h (0 Bft)
28.07.2012 14:35 18,5 C 85 % 0,0 l/m 0,6 km/h (0 Bft) W-NW 292 15,9 C 18,6 C 0,0 km/h (0 Bft)
28.07.2012 14:40 18,5 C 84 % 0,0 l/m 0,5 km/h (0 Bft) N-NO 22 15,7 C 18,4 C 0,0 km/h (0 Bft)
28.07.2012 14:45 18,6 C 85 % 0,0 l/m 1,4 km/h (1 Bft) O-SO 112 16,0 C 18,3 C 3,9 km/h (1 Bft)
28.07.2012 14:50 18,6 C 85 % 0,0 l/m 2,3 km/h (1 Bft) O-SO 112 16,0 C 18,2 C 1,8 km/h (1 Bft)
28.07.2012 14:55 18,8 C 86 % 0,0 l/m 1,4 km/h (1 Bft) S 180 16,4 C 18,4 C 0,0 km/h (0 Bft)
28.07.2012 15:00 19,1 C 86 % 0,0 l/m 1,0 km/h (0 Bft) SO 135 16,7 C 18,8 C 3,1 km/h (1 Bft)
28.07.2012 15:05 19,8 C 86 % 0,0 l/m 1,0 km/h (0 Bft) N-NW 337 17,4 C 19,7 C 0,0 km/h (0 Bft)
28.07.2012 15:10 20,6 C 85 % 0,0 l/m 0,6 km/h (0 Bft) O 90 18,0 C 20,7 C 0,0 km/h (0 Bft)
28.07.2012 15:15 21,9 C 82 % 0,0 l/m 0,6 km/h (0 Bft) W-SW 247 18,7 C 22,5 C 3,9 km/h (1 Bft)
28.07.2012 15:20 22,4 C 78 % 0,0 l/m 1,4 km/h (1 Bft) W-NW 292 18,4 C 23,7 C 4,2 km/h (1 Bft)
28.07.2012 15:25 22,1 C 76 % 0,0 l/m 3,7 km/h (1 Bft) W-NW 292 17,7 C 24,1 C 6,6 km/h (2 Bft)
28.07.2012 15:30 21,8 C 78 % 0,0 l/m 4,8 km/h (1 Bft) O-SO 112 17,8 C 23,7 C 4,7 km/h (1 Bft)
28.07.2012 15:35 22,2 C 77 % 0,0 l/m 3,5 km/h (1 Bft) S-SO 157 18,0 C 23,7 C 0,0 km/h (0 Bft)
28.07.2012 15:40 22,8 C 75 % 0,0 l/m 2,6 km/h (1 Bft) W 270 18,1 C 24,3 C 7,6 km/h (2 Bft)
28.07.2012 15:45 22,0 C 74 % 0,0 l/m 3,4 km/h (1 Bft) W-SW 247 17,1 C 24,0 C 4,5 km/h (1 Bft)
28.07.2012 15:50 22,0 C 74 % 0,0 l/m 4,3 km/h (1 Bft) W-NW 292 17,1 C 23,5 C 5,5 km/h (1 Bft)
28.07.2012 15:55 22,3 C 73 % 0,0 l/m 3,1 km/h (1 Bft) N 360 17,2 C 23,5 C 3,5 km/h (1 Bft)
28.07.2012 16:00 22,2 C 74 % 0,0 l/m 2,9 km/h (1 Bft) N-NW 337 17,3 C 23,5 C 5,0 km/h (1 Bft)
28.07.2012 16:05 21,8 C 75 % 0,0 l/m 3,4 km/h (1 Bft) W 270 17,2 C 23,3 C 3,2 km/h (1 Bft)
28.07.2012 16:10 21,7 C 74 % 0,0 l/m 3,1 km/h (1 Bft) NO 45 16,9 C 23,2 C 1,8 km/h (1 Bft)
28.07.2012 16:15 22,7 C 71 % 0,0 l/m 1,8 km/h (1 Bft) N 360 17,2 C 23,9 C 1,8 km/h (1 Bft)
28.07.2012 16:20 24,0 C 67 % 0,0 l/m 1,1 km/h (1 Bft) W-SW 247 17,5 C 25,5 C 2,4 km/h (1 Bft)
28.07.2012 16:25 23,3 C 66 % 0,0 l/m 2,7 km/h (1 Bft) N-NW 337 16,6 C 26,3 C 3,4 km/h (1 Bft)
28.07.2012 16:30 23,2 C 66 % 0,0 l/m 3,4 km/h (1 Bft) S-SW 202 16,5 C 26,3 C 4,8 km/h (1 Bft)
28.07.2012 16:35 24,0 C 65 % 0,0 l/m 3,7 km/h (1 Bft) S-SW 202 17,0 C 26,7 C 6,8 km/h (2 Bft)
28.07.2012 16:40 24,1 C 66 % 0,0 l/m 3,9 km/h (1 Bft) W-SW 247 17,3 C 26,9 C 4,5 km/h (1 Bft)
28.07.2012 16:45 24,8 C 62 % 0,0 l/m 3,2 km/h (1 Bft) NO 45 17,0 C 27,8 C 0,0 km/h (0 Bft)
28.07.2012 16:50 24,8 C 59 % 0,0 l/m 3,2 km/h (1 Bft) SO 135 16,2 C 28,9 C 4,3 km/h (1 Bft)
28.07.2012 16:55 24,5 C 65 % 0,0 l/m 4,2 km/h (1 Bft) S 180 17,5 C 29,0 C 8,4 km/h (2 Bft)
28.07.2012 17:00 23,9 C 66 % 0,0 l/m 5,5 km/h (1 Bft) SW 225 17,1 C 27,7 C 6,6 km/h (2 Bft)
28.07.2012 17:05 23,6 C 67 % 0,0 l/m 5,8 km/h (2 Bft) S-SW 202 17,1 C 26,6 C 7,7 km/h (2 Bft)
28.07.2012 17:10 23,4 C 67 % 0,0 l/m 4,2 km/h (1 Bft) SW 225 16,9 C 26,3 C 3,2 km/h (1 Bft)
28.07.2012 17:15 23,4 C 67 % 0,0 l/m 3,1 km/h (1 Bft) S 180 16,9 C 26,8 C 3,7 km/h (1 Bft)
28.07.2012 17:20 23,3 C 67 % 0,0 l/m 2,9 km/h (1 Bft) O-SO 112 16,8 C 27,4 C 3,1 km/h (1 Bft)
28.07.2012 17:25 22,8 C 69 % 0,0 l/m 2,6 km/h (1 Bft) SW 225 16,8 C 28,2 C 4,8 km/h (1 Bft)
28.07.2012 17:30 22,6 C 68 % 0,0 l/m 2,1 km/h (1 Bft) SO 135 16,4 C 27,6 C 2,1 km/h (1 Bft)
28.07.2012 17:35 23,0 C 69 % 0,0 l/m 1,3 km/h (1 Bft) O-SO 112 17,0 C 27,4 C 1,6 km/h (1 Bft)
28.07.2012 17:40 23,3 C 66 % 0,0 l/m 1,1 km/h (1 Bft) SO 135 16,6 C 28,1 C 2,7 km/h (1 Bft)
28.07.2012 17:45 23,1 C 61 % 0,0 l/m 3,2 km/h (1 Bft) S-SO 157 15,2 C 28,3 C 8,4 km/h (2 Bft)
28.07.2012 17:50 23,2 C 62 % 0,0 l/m 3,9 km/h (1 Bft) SO 135 15,5 C 28,2 C 3,2 km/h (1 Bft)
28.07.2012 17:55 23,2 C 59 % 0,0 l/m 4,8 km/h (1 Bft) O-SO 112 14,7 C 28,2 C 12,2 km/h (2 Bft)
28.07.2012 18:00 23,3 C 58 % 0,0 l/m 5,8 km/h (2 Bft) O-SO 112 14,6 C 27,8 C 11,4 km/h (2 Bft)
28.07.2012 18:05 23,0 C 58 % 0,0 l/m 6,6 km/h (2 Bft) W-SW 247 14,3 C 27,3 C 6,1 km/h (2 Bft)
28.07.2012 18:10 23,0 C 58 % 0,0 l/m 7,1 km/h (2 Bft) SO 135 14,3 C 26,4 C 21,1 km/h (4 Bft)
28.07.2012 18:15 23,4 C 56 % 0,0 l/m 8,2 km/h (2 Bft) S-SO 157 14,1 C 26,3 C 6,4 km/h (2 Bft)
28.07.2012 18:20 23,7 C 55 % 0,0 l/m 8,4 km/h (2 Bft) O-SO 112 14,1 C 26,5 C 21,1 km/h (4 Bft)
28.07.2012 18:25 23,7 C 52 % 0,0 l/m 7,9 km/h (2 Bft) SO 135 13,2 C 26,9 C 11,6 km/h (2 Bft)
28.07.2012 18:30 23,7 C 53 % 0,0 l/m 8,5 km/h (2 Bft) O-SO 112 13,5 C 26,7 C 13,5 km/h (3 Bft)
28.07.2012 18:35 23,8 C 50 % 0,0 l/m 8,9 km/h (2 Bft) S 180 12,7 C 26,5 C 5,3 km/h (1 Bft)
28.07.2012 18:40 24,0 C 52 % 0,0 l/m 8,0 km/h (2 Bft) SO 135 13,5 C 27,0 C 10,1 km/h (2 Bft)
28.07.2012 18:45 24,0 C 53 % 0,0 l/m 6,4 km/h (2 Bft) S 180 13,8 C 27,4 C 8,7 km/h (2 Bft)
28.07.2012 18:50 23,7 C 52 % 0,0 l/m 6,8 km/h (2 Bft) S 180 13,2 C 26,7 C 4,5 km/h (1 Bft)
28.07.2012 18:55 23,2 C 55 % 0,0 l/m 6,8 km/h (2 Bft) SO 135 13,6 C 25,8 C 7,7 km/h (2 Bft)
28.07.2012 19:00 23,0 C 55 % 0,0 l/m 6,6 km/h (2 Bft) S 180 13,5 C 25,6 C 6,3 km/h (2 Bft)
28.07.2012 19:05 23,0 C 56 % 0,0 l/m 6,0 km/h (2 Bft) O-SO 112 13,7 C 25,5 C 7,4 km/h (2 Bft)
28.07.2012 19:10 23,2 C 56 % 0,0 l/m 5,8 km/h (2 Bft) SO 135 13,9 C 25,8 C 12,6 km/h (3 Bft)
28.07.2012 19:15 22,9 C 56 % 0,0 l/m 6,1 km/h (2 Bft) S 180 13,6 C 25,7 C 5,5 km/h (1 Bft)
28.07.2012 19:20 22,6 C 58 % 0,0 l/m 5,5 km/h (1 Bft) SO 135 13,9 C 25,0 C 5,0 km/h (1 Bft)
28.07.2012 19:25 22,4 C 58 % 0,0 l/m 4,0 km/h (1 Bft) SO 135 13,7 C 24,0 C 4,2 km/h (1 Bft)
28.07.2012 19:30 22,1 C 59 % 0,0 l/m 3,5 km/h (1 Bft) O-SO 112 13,7 C 23,5 C 4,2 km/h (1 Bft)
28.07.2012 19:35 21,8 C 61 % 0,0 l/m 3,4 km/h (1 Bft) SO 135 13,9 C 23,0 C 3,7 km/h (1 Bft)
28.07.2012 19:40 21,6 C 62 % 0,0 l/m 3,2 km/h (1 Bft) S-SO 157 14,0 C 22,7 C 4,7 km/h (1 Bft)
28.07.2012 19:45 21,2 C 64 % 0,0 l/m 2,4 km/h (1 Bft) O-SO 112 14,1 C 22,3 C 2,3 km/h (1 Bft)
28.07.2012 19:50 21,0 C 64 % 0,0 l/m 2,1 km/h (1 Bft) NO 45 13,9 C 22,1 C 2,4 km/h (1 Bft)
28.07.2012 19:55 20,7 C 66 % 0,0 l/m 1,1 km/h (1 Bft) NO 45 14,1 C 21,7 C 0,0 km/h (0 Bft)
28.07.2012 20:00 20,5 C 67 % 0,0 l/m 0,3 km/h (0 Bft) O-SO 112 14,2 C 21,5 C 0,0 km/h (0 Bft)
28.07.2012 20:05 20,1 C 68 % 0,0 l/m 0,0 km/h (0 Bft) N-NO 22 14,0 C 21,1 C 0,0 km/h (0 Bft)
28.07.2012 20:10 19,8 C 70 % 0,0 l/m 0,0 km/h (0 Bft) N 360 14,2 C 20,5 C 0,0 km/h (0 Bft)
28.07.2012 20:15 19,3 C 75 % 0,0 l/m 0,3 km/h (0 Bft) NO 45 14,8 C 19,7 C 0,0 km/h (0 Bft)
28.07.2012 20:20 18,8 C 77 % 0,0 l/m 0,3 km/h (0 Bft) NO 45 14,7 C 19,1 C 0,0 km/h (0 Bft)
28.07.2012 20:25 18,6 C 79 % 0,0 l/m 0,0 km/h (0 Bft) N 360 14,9 C 18,4 C 0,0 km/h (0 Bft)
28.07.2012 20:30 18,5 C 79 % 0,0 l/m 0,3 km/h (0 Bft) N-NO 22 14,8 C 18,3 C 0,0 km/h (0 Bft)
28.07.2012 20:35 18,4 C 80 % 0,0 l/m 1,6 km/h (1 Bft) N 360 14,9 C 18,2 C 2,9 km/h (1 Bft)
28.07.2012 20:40 18,2 C 81 % 0,0 l/m 1,9 km/h (1 Bft) N 360 14,9 C 18,1 C 3,2 km/h (1 Bft)
28.07.2012 20:45 18,1 C 81 % 0,0 l/m 1,6 km/h (1 Bft) N 360 14,8 C 17,8 C 2,3 km/h (1 Bft)
28.07.2012 20:50 17,9 C 82 % 0,0 l/m 1,3 km/h (1 Bft) N-NO 22 14,8 C 17,6 C 2,4 km/h (1 Bft)
28.07.2012 20:55 17,8 C 82 % 0,0 l/m 1,4 km/h (1 Bft) N-NO 22 14,7 C 17,4 C 2,3 km/h (1 Bft)
28.07.2012 21:00 17,9 C 82 % 0,0 l/m 1,9 km/h (1 Bft) N 360 14,8 C 17,4 C 2,9 km/h (1 Bft)
28.07.2012 21:05 17,6 C 82 % 0,0 l/m 1,4 km/h (1 Bft) W-NW 292 14,5 C 17,4 C 0,0 km/h (0 Bft)
28.07.2012 21:10 17,5 C 81 % 0,0 l/m 0,5 km/h (0 Bft) NO 45 14,2 C 17,3 C 0,0 km/h (0 Bft)
28.07.2012 21:15 17,4 C 82 % 0,0 l/m 0,5 km/h (0 Bft) S 180 14,3 C 17,3 C 0,0 km/h (0 Bft)
28.07.2012 21:20 17,3 C 83 % 0,0 l/m 0,6 km/h (0 Bft) N-NW 337 14,4 C 17,2 C 3,1 km/h (1 Bft)
28.07.2012 21:25 17,2 C 84 % 0,0 l/m 1,1 km/h (1 Bft) N 360 14,5 C 17,2 C 2,4 km/h (1 Bft)
28.07.2012 21:30 17,2 C 84 % 0,0 l/m 1,6 km/h (1 Bft) NO 45 14,5 C 17,2 C 2,3 km/h (1 Bft)
28.07.2012 21:35 17,0 C 84 % 0,0 l/m 1,0 km/h (0 Bft) W-NW 292 14,3 C 17,3 C 0,0 km/h (0 Bft)
28.07.2012 21:40 17,0 C 83 % 0,0 l/m 0,5 km/h (0 Bft) S-SO 157 14,1 C 17,1 C 0,0 km/h (0 Bft)
28.07.2012 21:45 17,0 C 83 % 0,0 l/m 0,5 km/h (0 Bft) W-SW 247 14,1 C 17,1 C 0,0 km/h (0 Bft)
28.07.2012 21:50 16,9 C 84 % 0,0 l/m 1,0 km/h (0 Bft) SO 135 14,2 C 17,1 C 3,4 km/h (1 Bft)
28.07.2012 21:55 17,0 C 84 % 0,0 l/m 1,1 km/h (1 Bft) N 360 14,3 C 17,1 C 0,0 km/h (0 Bft)
28.07.2012 22:00 16,9 C 85 % 0,0 l/m 0,8 km/h (0 Bft) S 180 14,4 C 16,8 C 0,0 km/h (0 Bft)
28.07.2012 22:05 16,8 C 85 % 0,0 l/m 0,0 km/h (0 Bft) SW 225 14,3 C 16,6 C 1,9 km/h (1 Bft)
28.07.2012 22:10 16,7 C 86 % 0,0 l/m 0,5 km/h (0 Bft) SO 135 14,3 C 16,5 C 2,1 km/h (1 Bft)
28.07.2012 22:15 16,6 C 86 % 0,0 l/m 0,5 km/h (0 Bft) SO 135 14,2 C 16,4 C 0,0 km/h (0 Bft)
28.07.2012 22:20 16,5 C 86 % 0,0 l/m 0,2 km/h (0 Bft) NO 45 14,1 C 16,4 C 0,0 km/h (0 Bft)
28.07.2012 22:25 16,5 C 88 % 0,0 l/m 0,2 km/h (0 Bft) N 360 14,5 C 16,2 C 1,6 km/h (1 Bft)
28.07.2012 22:30 16,5 C 89 % 0,0 l/m 0,6 km/h (0 Bft) N-NW 337 14,7 C 16,2 C 6,0 km/h (2 Bft)
28.07.2012 22:35 16,6 C 89 % 0,0 l/m 2,1 km/h (1 Bft) NO 45 14,8 C 16,2 C 2,1 km/h (1 Bft)
28.07.2012 22:40 16,6 C 90 % 0,0 l/m 2,4 km/h (1 Bft) S 180 15,0 C 16,2 C 0,0 km/h (0 Bft)
28.07.2012 22:45 16,5 C 90 % 0,0 l/m 1,0 km/h (0 Bft) S-SW 202 14,9 C 16,3 C 0,0 km/h (0 Bft)
28.07.2012 22:50 16,4 C 90 % 0,0 l/m 0,3 km/h (0 Bft) O 90 14,8 C 16,3 C 0,0 km/h (0 Bft)
28.07.2012 22:55 16,3 C 90 % 0,0 l/m 0,2 km/h (0 Bft) W-SW 247 14,7 C 16,2 C 0,0 km/h (0 Bft)
28.07.2012 23:00 16,3 C 90 % 0,0 l/m 0,0 km/h (0 Bft) O-SO 112 14,7 C 16,2 C 0,0 km/h (0 Bft)
28.07.2012 23:05 16,3 C 90 % 0,0 l/m 0,0 km/h (0 Bft) N 360 14,7 C 16,2 C 0,0 km/h (0 Bft)
28.07.2012 23:10 16,3 C 90 % 0,0 l/m 0,3 km/h (0 Bft) O-SO 112 14,7 C 16,2 C 6,4 km/h (2 Bft)
28.07.2012 23:15 16,4 C 90 % 0,0 l/m 0,5 km/h (0 Bft) N 360 14,8 C 16,3 C 0,0 km/h (0 Bft)
28.07.2012 23:20 16,3 C 90 % 0,0 l/m 0,5 km/h (0 Bft) N 360 14,7 C 16,3 C 0,0 km/h (0 Bft)
28.07.2012 23:25 16,3 C 91 % 0,0 l/m 0,2 km/h (0 Bft) O 90 14,8 C 16,2 C 0,0 km/h (0 Bft)
28.07.2012 23:30 16,3 C 91 % 0,0 l/m 0,2 km/h (0 Bft) S-SW 202 14,8 C 16,2 C 0,0 km/h (0 Bft)
28.07.2012 23:35 16,2 C 91 % 0,0 l/m 0,3 km/h (0 Bft) NW 315 14,7 C 16,2 C 0,0 km/h (0 Bft)
28.07.2012 23:40 16,2 C 91 % 0,0 l/m 0,3 km/h (0 Bft) N-NW 337 14,7 C 16,1 C 0,0 km/h (0 Bft)
28.07.2012 23:45 16,1 C 91 % 0,0 l/m 0,2 km/h (0 Bft) S 180 14,6 C 16,0 C 2,4 km/h (1 Bft)
28.07.2012 23:50 16,1 C 91 % 0,0 l/m 0,2 km/h (0 Bft) NO 45 14,6 C 16,0 C 0,0 km/h (0 Bft)
28.07.2012 23:55 16,2 C 91 % 0,0 l/m 0,2 km/h (0 Bft) S-SO 157 14,7 C 16,0 C 0,0 km/h (0 Bft)
_ Min-Zeit 06:05 09:25 - 23:05 - - 06:05 06:05 23:55
Minimum _ 14,1 C 43 % - 0,0 km/h (0 Bft) - - 11,3 C 13,9 C 0,0 km/h (0 Bft)
_ Max-Zeit 11:05 23:55 23:55 10:40 - - 15:15 09:25 18:20
Maximum _ 27,2 C 91 % 0,0 l/m 9,2 km/h
S (2 Bft)
- - 18,7 C 29,4 C 21,1 km/h
O-SO (4 Bft)
Durchschnitt _ 20,5 C 69 % #0,0 l/m 2,7 km/h (1 Bft) O-SO - 14,3 C 21,4 C 3,6 km/h (1 Bft)